{"data":{"norad_id":54048,"epoch":"2026-05-24T19:53:38.732064Z","epoch_age_seconds":79923,"freshness":"FRESH","line1":"1 54048U 22134A   26144.82892051  .00000084  00000+0  00000+0 0  9995","line2":"2 54048   0.0431 294.0197 0001781  67.9908 191.8193  1.00271954 13149","mean_motion":1.00271954,"eccentricity":0.0001781,"inclination_deg":0.0431,"raan_deg":294.0197,"arg_perigee_deg":67.9908,"mean_anomaly_deg":191.8193,"bstar":0,"rev_number":1314,"period_min":1436.094483608,"perigee_km":35779.038054098,"apogee_km":35794.057114747,"semimajor_km":42164.684584422,"source":"CELESTRAK","updated_at":"2026-05-25T13:38:14.111352Z"}}